Regional Weather Roundup
Issued by NWS Cleveland, OH

Home | Current Version | Previous Version | Text Only | Print | Product List | Glossary Off
Versions: 1 2 3 4 5 6 7 8 9 10 11 12 13 14 15 16 17 18 19 20 21 22 23 24 25 26 27 28 29 30 31 32 33 34 35 36 37 38 39 40 41 42 43 44 45 46 47 48 49 50

000
ASUS41 KCLE 250000
RWRCLE
OHIO REGIONAL WEATHER ROUNDUP
NATIONAL WEATHER SERVICE WILMINGTON, OH
800 PM EDT WED AUG 24 2016

NOTE: "FAIR" INDICATES FEW OR NO CLOUDS BELOW 12,000 FEET WITH NO
SIGNIFICANT WEATHER AND/OR OBSTRUCTIONS TO VISIBILITY.

OHZ001>008-015>018-024>027-034-035-043-044-250100-
   NORTHWEST OHIO

CITY           SKY/WX    TMP DP  RH WIND       PRES   REMARKS
DEFIANCE       CLOUDY    78  73  84 SW3       29.98S
FINDLAY        MOCLDY    80  71  74 S16       29.99F
TOLEDO EXPRESS LGT RAIN  75  75 100 S8        29.98S FOG
TOLEDO EXEC    MOCLDY    80  73  79 S12       29.99S
LIMA           FAIR      78  74  87 S10       30.01F
$$

OHZ009>014-019>023-028>033-038-089-250100-
   NORTHEAST OHIO

CITY           SKY/WX    TMP DP  RH WIND       PRES   REMARKS
CLE-HOPKINS    MOCLDY    83  66  56 S15G21    30.05F
CLE-LAKEFRONT  FAIR      84  66  54 S15       30.02S
CUY CO. ARPT   MOCLDY    84  70  61 S16       30.05F
LORAIN-ELYRIA  FAIR      80  67  64 S14G24    30.04S
ASHTABULA      FAIR      79  66  64 S8        30.07S
AKRON-CANTON   MOCLDY    80  65  59 S12       30.09F
WOOSTER        NOT AVBL
MANSFIELD      FAIR      78  69  73 S15       30.07F
YOUNGSTOWN     CLOUDY    79  64  60 S9        30.09F
$$

OHZ042-051>053-060>062-070>072-077>081-250100-
  SOUTHWEST OHIO

CITY           SKY/WX    TMP DP  RH WIND       PRES   REMARKS
CINC-COVINGTON CLOUDY    83  73  72 S8        30.07F
CINC-LUNKEN    FAIR      80  74  81 S7        30.06S
HAMILTON       FAIR      82  72  71 SW5       30.05F
DAYTON         NOT AVBL
WRIGHT-PAT AFB NOT AVBL
DAYTON GENERAL LGT RAIN  79  72  79 S9        30.05S
WILMINGTON     FAIR      78  73  84 S9        30.06F
$$

OHZ036-037-039>041-045>050-054>059-063>069-073>076-082>088-250100-
  CENTRAL AND SOUTHEAST OHIO

CITY           SKY/WX    TMP DP  RH WIND       PRES   REMARKS
COLUMBUS       LGT RAIN  78  70  76 S9        30.07F
OSU AIRPORT    LGT RAIN  79  72  79 S9        30.07S
BOLTON FIELD   NOT AVBL
RICKENBACK AFB NOT AVBL
NEWARK           N/A     80  70  71 S8        30.08
MARION         FAIR      78  70  76 S14       30.05F
LANCASTER      FAIR      79  71  76 SE7       30.09F
ZANESVILLE     FAIR      79  69  71 S7        30.11S
NEW PHILLY     FAIR      81  67  62 S6        30.10F
$$



USA.gov is the U.S. government's official web portal to all federal, state and local government web resources and services.